Bremerton, WA

7:07 PM PDT on October 18, 2019 (GMT -0700)
Bremerton National

Weather History for KPWT - August, 2019

Change the Weather History Date:

Friday, August 23, 2019

  Actual Average Record
Temperature  
Mean Temperature 60 °F -  
Max Temperature 73 °F 72 °F 84 °F (1996)
Min Temperature 48 °F 50 °F 42 °F (2003)
Degree Days  
Heating Degree Days 4    
Growing Degree Days 10 (Base 50)    
Moisture  
Dew Point 52 °F    
Average Humidity 80    
Maximum Humidity 100    
Minimum Humidity 53    
Precipitation  
Precipitation 0.00 in - - ()
Sea Level Pressure  
Sea Level Pressure 30.02 in    
Wind  
Wind Speed 2 mph ()    
Max Wind Speed 10 mph    
Max Gust Speed 16 mph    
Visibility 8.3 miles    
Events Fog    
Averages and records for this station are not official NWS values.
T = Trace of Precipitation, MM = Missing Value Source: Averaged Metar Reports

Daily Weather History Graph

Daily Weather History Graph

Search for Another Location

Airport or City:

Astronomy

Aug. 23, 2019 Rise Set
Actual Time 6:17 AM PDT 8:08 PM PDT
Civil Twilight 5:44 AM PDT 8:41 PM PDT
Nautical Twilight 5:04 AM PDT 9:21 PM PDT
Astronomical Twilight 4:20 AM PDT 10:05 PM PDT
Moon No Moon Rise 2:32 PM PDT (8/23)
Length of Visible Light 14h 56m
Length of Day
13h 51m
Waning Gibbous, 48% of the Moon is Illuminated
Aug 23
Waning Gibbous
Aug 30
New
Sep 5
First Quarter
Sep 13
Full
Sep 21
Last Quarter

Hourly Weather History & Observations

Time (PDT) Temp. Dew Point Humidity Pressure Visibility Wind Dir Wind Speed Gust Speed Precip Events Conditions
12:56 AM 53.1 °F 51.1 °F 93% 30.08 in 10.0 mi Calm Calm - N/A   Clear
1:56 AM 53.1 °F 51.1 °F 93% 30.07 in 9.0 mi Calm Calm - N/A   Clear
2:56 AM 52.0 °F 51.1 °F 97% 30.05 in 10.0 mi Calm Calm - N/A   Clear
3:56 AM 52.0 °F 51.1 °F 97% 30.05 in 10.0 mi Calm Calm - N/A   Clear
4:18 AM 50.0 °F 48.2 °F 94% 30.01 in 2.0 mi Calm Calm - N/A   Clear
4:36 AM 51.8 °F 50.0 °F 94% 30.00 in 8.0 mi Calm Calm - N/A   Clear
4:56 AM 51.1 °F 50.0 °F 96% 30.05 in 10.0 mi Calm Calm - N/A   Clear
5:22 AM 48.2 °F 46.4 °F 93% 30.00 in 1.0 mi Calm Calm - N/A   Clear
5:31 AM 50.0 °F 48.2 °F 94% 29.99 in 2.0 mi Calm Calm - N/A   Clear
5:41 AM 50.0 °F 50.0 °F 100% 30.00 in 1.2 mi Calm Calm - N/A   Clear
5:56 AM 50.0 °F 50.0 °F 100% 30.05 in 10.0 mi Calm Calm - N/A   Clear
6:32 AM 50.0 °F 48.2 °F 94% 30.01 in 0.5 mi Calm Calm - N/A Fog Fog
6:38 AM 50.0 °F 48.2 °F 94% 30.01 in 1.0 mi ESE 3.5 mph - N/A   Clear
6:47 AM 51.8 °F 50.0 °F 94% 30.00 in 10.0 mi Calm Calm - N/A   Clear
6:56 AM 51.1 °F 50.0 °F 96% 30.06 in 10.0 mi Calm Calm - N/A   Clear
7:56 AM 57.0 °F 54.0 °F 89% 30.06 in 10.0 mi NE 8.1 mph - N/A   Clear
8:56 AM 57.9 °F 54.0 °F 87% 30.05 in 10.0 mi NE 8.1 mph - N/A   Clear
9:56 AM 61.0 °F 54.0 °F 78% 30.07 in 10.0 mi ENE 6.9 mph - N/A   Clear
10:56 AM 64.0 °F 55.0 °F 73% 30.05 in 10.0 mi NNE 5.8 mph - N/A   Clear
11:28 AM 66.2 °F 53.6 °F 64% 30.00 in 10.0 mi NE 9.2 mph 16.1 mph N/A   Mostly Cloudy
11:37 AM 66.2 °F 53.6 °F 64% 30.00 in 10.0 mi NE 10.4 mph - N/A   Scattered Clouds
11:56 AM 66.9 °F 54.0 °F 63% 30.03 in 10.0 mi ENE 6.9 mph - N/A   Clear
12:56 PM 70.0 °F 55.9 °F 61% 30.02 in 10.0 mi Variable 5.8 mph - N/A   Clear
1:56 PM 68.0 °F 55.0 °F 63% 30.01 in 10.0 mi NNE 6.9 mph - N/A   Clear
2:56 PM 71.1 °F 54.0 °F 55% 29.99 in 8.0 mi ENE 3.5 mph - N/A   Clear
3:56 PM 73.0 °F 55.0 °F 53% 29.98 in 10.0 mi North 5.8 mph - N/A   Clear
4:56 PM 70.0 °F 54.0 °F 57% 29.97 in 10.0 mi NE 8.1 mph - N/A   Partly Cloudy
5:56 PM 69.1 °F 54.0 °F 58% 29.97 in 10.0 mi NE 5.8 mph - N/A   Partly Cloudy
6:56 PM 66.0 °F 55.0 °F 68% 29.97 in 10.0 mi NE 6.9 mph - N/A   Clear
7:56 PM 64.0 °F 53.1 °F 67% 29.96 in 10.0 mi NE 9.2 mph - N/A   Scattered Clouds
8:56 PM 63.0 °F 53.1 °F 70% - 10.0 mi ENE 4.6 mph - N/A   Overcast
9:56 PM 63.0 °F 53.1 °F 70% 29.98 in 10.0 mi ENE 4.6 mph - N/A   Overcast
10:56 PM 62.1 °F 53.1 °F 72% 29.99 in 10.0 mi Calm Calm - N/A   Overcast
11:56 PM 61.0 °F 53.1 °F 75% 29.98 in 10.0 mi Calm Calm - N/A   Overcast